Wind_Speed
18 15 14 15 14 13 14 15 14 15 14 14 15 15 15 13 12 12 12 12 13 13 12 11 11 10 10 9 10 10 10 11 11 11 10 8 9 9 9 8 9 10 12 14 16 19 21 23 23 23 23 22 21 20 19 18 17 17 16 16 16 16 16 15 15 16 16 17 18 19 20 20 19 19 18 18 17 16 15 14 14 14 15 16 16
21 17 15 15 14 14 14 15 15 15 15 14 15 15 14 13 12 12 12 13 13 12 11 11 10 10 10 10 10 11 11 12 12 12 11 10 10 10 10 10 11 11 13 15 16 19 21 23 23 23 22 21 20 19 18 17 17 16 16 16 16 16 15 15 15 15 15 15 16 17 18 19 19 19 18 17 16 15 15 14 14 14 15 16 17
20 19 17 16 15 14 14 15 16 15 15 14 15 15 14 13 12 13 13 13 13 12 11 11 10 10 10 10 11 11 11 13 13 12 12 12 11 11 12 13 13 12 13 14 17 19 21 22 22 22 21 20 19 18 17 16 16 15 15 15 15 15 15 16 16 17 16 16 15 15 17 18 19 19 18 17 16 16 16 15 15 16 16 17 17
19 19 18 17 16 15 14 14 16 16 15 14 15 15 14 13 13 13 13 13 13 12 12 11 10 10 10 10 10 10 11 12 13 13 13 12 12 12 14 14 14 13 12 14 18 20 21 22 22 21 20 19 18 17 17 16 15 15 15 15 15 15 15 16 17 17 17 16 15 14 15 16 18 19 18 17 17 17 17 16 16 17 17 17 17
18 19 19 18 17 15 15 15 16 16 15 14 15 15 14 14 14 14 13 13 13 12 11 11 10 10 10 9 9 9 10 11 12 13 12 12 12 12 14 15 14 14 13 16 20 21 22 22 21 20 19 18 17 17 16 15 15 14 15 15 14 14 15 16 17 16 16 14 13 13 14 15 15 19 19 18 17 17 16 16 16 16 16 16 16
16 19 20 19 18 16 15 15 16 16 15 14 14 15 14 14 14 14 13 13 12 12 11 11 10 10 9 8 8 8 9 9 10 12 12 12 12 12 13 15 16 16 16 19 21 22 22 21 20 19 18 17 16 16 15 14 14 14 14 14 14 14 14 16 16 14 14 12 9 11 13 13 13 17 19 18 18 17 16 16 16 16 15 15 15
15 19 20 19 19 17 16 15 16 16 15 14 14 14 14 14 14 14 13 12 12 12 11 10 10 9 8 7 7 7 7 8 9 10 11 11 12 12 13 16 17 17 17 21 22 21 21 20 19 18 17 16 15 15 14 13 13 13 13 14 14 14 14 15 15 14 13 10 8 10 11 10 11 16 19 18 18 17 17 17 15 15 14 15 15
15 19 19 19 19 17 16 16 16 16 16 15 14 14 14 15 14 13 13 12 12 11 11 10 8 8 6 6 6 6 6 6 7 8 9 10 11 12 14 16 17 17 19 21 22 21 20 19 18 17 16 15 14 13 12 12 12 12 13 14 14 14 14 13 13 13 12 9 9 10 9 9 11 15 19 18 18 18 17 17 16 15 15 16 15
16 19 19 19 19 17 16 16 17 17 16 16 14 14 14 15 14 13 12 11 11 11 10 9 7 6 6 5 6 6 5 5 5 6 7 9 9 11 15 17 17 18 20 21 21 20 19 18 17 16 15 14 13 12 11 10 11 11 12 12 13 13 14 12 11 11 10 8 7 9 8 10 12 15 19 18 17 17 17 17 16 16 15 16 16
17 20 19 19 19 18 17 16 16 17 17 16 15 14 14 15 14 13 12 11 10 10 9 8 6 5 5 5 5 6 6 5 5 5 6 7 9 10 13 17 19 19 20 21 20 19 18 17 16 15 14 13 11 10 10 9 10 10 10 12 12 13 13 12 10 9 8 6 3 7 9 10 12 14 18 17 16 16 16 17 16 15 15 15 15
17 19 19 20 20 18 17 16 16 17 17 17 16 15 14 15 14 13 12 11 10 10 9 7 6 5 5 5 5 5 6 6 5 5 6 7 8 10 12 16 19 19 20 20 19 18 17 16 15 14 13 11 10 9 9 9 9 9 9 11 13 13 12 10 8 6 5 5 2 6 9 10 12 14 16 16 16 16 16 16 15 14 13 14 14
16 16 19 21 20 19 17 16 16 17 18 17 16 15 15 14 14 13 12 11 10 9 8 7 5 4 4 4 4 5 5 5 5 5 6 7 8 10 13 15 18 19 19 19 18 17 16 15 14 13 11 10 9 8 8 7 7 8 9 10 12 11 10 9 7 4 3 4 2 5 8 10 12 14 15 15 15 16 16 16 15 13 13 13 14
14 13 17 22 21 20 18 17 17 17 18 17 16 15 15 14 13 12 11 10 9 8 7 6 5 3 2 3 3 4 4 5 5 5 5 7 8 9 13 16 17 18 18 18 17 16 15 14 12 11 10 9 8 7 6 6 6 7 8 9 10 10 8 9 8 6 6 5 2 5 8 10 12 14 14 14 14 15 15 16 15 13 12 13 13
11 12 15 22 22 20 19 17 17 17 18 18 17 15 15 14 13 11 10 10 8 7 6 5 4 2 1 2 3 3 4 5 5 6 5 7 8 9 12 15 16 17 17 17 17 15 14 13 12 10 9 8 7 6 5 4 5 6 7 7 8 8 6 7 7 9 8 3 3 5 7 10 12 13 13 13 13 14 15 15 14 14 13 12 13
10 12 15 21 23 21 20 17 17 17 18 18 17 16 14 13 12 11 10 9 8 6 4 3 3 3 3 3 3 3 4 5 5 6 6 6 8 9 11 14 16 16 16 16 16 15 14 12 11 10 9 7 6 5 4 4 5 5 6 6 5 5 4 5 6 9 7 4 5 4 8 11 11 12 12 12 12 13 13 13 13 13 13 12 12
11 11 15 22 23 22 20 18 17 17 17 18 17 15 14 13 11 10 9 8 7 5 4 3 4 5 4 4 4 4 5 5 5 5 6 6 8 9 9 12 14 15 15 15 15 14 13 12 10 9 8 6 5 3 3 4 5 5 6 6 5 4 3 3 4 6 4 5 6 6 8 10 10 10 11 11 11 12 12 12 12 12 12 12 12
13 12 15 22 24 21 20 19 18 18 18 17 16 15 14 12 11 10 9 7 5 4 4 4 5 6 6 5 5 5 5 6 6 5 6 7 7 9 10 10 12 14 14 14 14 13 12 11 10 8 7 6 4 3 4 4 5 5 6 6 6 5 3 3 3 2 2 4 5 7 8 9 9 9 9 9 10 10 11 10 10 11 11 12 12
11 11 15 23 23 21 20 19 19 19 18 17 16 14 13 12 11 10 8 6 5 4 4 5 7 7 6 6 6 6 6 7 6 6 6 7 7 8 9 9 11 13 14 14 13 12 11 9 8 7 6 4 3 4 6 6 6 6 6 7 7 5 3 3 2 1 2 4 5 7 8 9 8 8 8 8 9 9 9 9 9 9 10 11 11
8 8 15 23 22 21 20 19 20 19 18 17 15 14 13 12 11 9 7 5 4 4 5 7 7 7 7 7 7 7 7 8 7 7 6 6 7 7 8 8 9 11 12 12 12 10 9 8 7 5 4 3 4 6 8 8 7 6 7 7 6 3 2 2 1 2 3 5 6 7 7 7 8 8 7 8 8 8 8 9 9 9 9 10 10
6 7 13 22 22 21 20 19 19 18 17 15 14 14 13 12 10 8 6 5 5 5 6 8 8 8 8 8 8 9 9 9 9 8 8 7 6 6 7 7 7 8 10 10 9 8 7 6 4 3 3 3 4 7 8 9 8 7 7 6 4 2 2 1 3 4 3 5 6 6 6 6 7 7 7 7 8 8 8 8 8 9 9 9 9
9 8 10 19 21 21 21 20 19 18 16 15 14 13 13 12 10 8 7 6 5 6 7 9 9 10 10 10 10 11 11 10 9 9 9 8 7 6 6 7 7 7 7 7 7 6 5 4 4 4 4 4 5 6 8 8 7 6 5 3 1 1 1 3 4 4 4 5 5 6 6 6 6 6 6 7 7 7 7 7 8 8 8 8 8
12 11 11 17 21 22 21 19 19 17 16 14 14 13 12 11 10 9 7 6 6 7 8 9 10 11 11 11 11 11 12 11 9 8 9 9 8 8 7 7 7 7 6 6 6 6 6 6 6 6 6 6 6 6 6 7 6 4 2 1 2 1 3 5 5 4 5 5 5 5 5 5 5 5 6 6 7 7 7 7 8 7 7 7 7
14 13 12 15 20 22 21 19 18 17 16 15 13 13 12 11 11 9 8 7 7 8 9 10 11 12 11 10 10 10 11 11 8 7 9 8 8 8 8 7 8 8 8 8 8 9 9 9 8 8 7 7 6 5 6 6 4 2 0 2 2 1 4 5 4 4 4 5 5 5 4 4 5 5 6 6 7 7 7 8 7 7 7 7 7
15 13 12 15 20 23 21 19 18 17 16 14 13 13 12 11 11 9 8 8 8 9 10 11 12 11 10 8 8 10 11 10 7 6 8 7 7 8 8 8 8 9 9 10 10 10 10 10 10 9 8 6 4 3 5 5 3 2 2 3 3 3 4 4 3 3 4 4 5 4 4 4 4 6 6 6 7 7 7 7 7 7 7 7 7
14 13 15 15 19 21 19 18 18 17 15 14 14 12 12 11 10 9 8 8 9 11 12 13 14 12 10 7 5 7 8 7 6 5 7 6 6 7 7 8 8 10 11 11 11 11 10 10 10 8 7 5 3 2 4 3 2 1 2 4 3 4 4 4 3 3 4 4 4 4 4 4 3 5 5 5 5 5 6 6 6 7 7 7 7
16 15 17 16 18 20 18 17 18 17 15 14 13 12 12 11 11 10 9 9 9 12 13 13 14 11 9 6 4 5 5 5 4 4 5 5 5 5 6 7 8 9 11 11 10 9 7 8 7 6 5 4 3 2 2 2 3 2 3 3 3 4 3 4 3 3 4 4 3 3 4 4 2 1 3 4 5 5 5 5 6 6 7 8 9
18 18 18 19 20 20 19 17 18 18 16 14 14 13 12 11 11 10 9 9 11 13 14 13 12 9 7 5 5 6 6 5 3 4 5 5 5 5 6 6 7 7 8 9 9 8 6 6 5 5 4 4 4 2 2 2 3 2 1 0 2 4 2 3 3 4 5 4 3 4 4 4 3 1 1 2 2 2 3 4 5 7 8 8 8
18 18 20 23 23 22 20 18 18 17 17 15 14 14 13 12 10 10 10 10 11 11 12 12 10 9 8 9 8 6 5 5 4 4 4 4 4 5 6 6 7 7 7 7 8 8 6 6 4 3 4 4 4 3 2 2 2 2 1 0 2 3 2 3 3 5 5 3 4 4 5 4 3 3 2 2 2 3 3 4 5 7 9 9 10
18 19 23 25 24 24 21 18 19 18 17 17 15 14 13 12 10 11 12 10 8 7 9 11 11 12 11 10 9 6 5 5 5 4 4 4 4 5 6 6 7 8 8 7 7 7 6 6 5 4 4 5 4 3 2 2 2 2 2 1 1 2 3 4 4 4 4 4 5 5 5 5 4 4 3 3 4 4 5 6 7 8 9 11 13
19 20 25 26 24 25 23 19 20 20 19 18 17 15 14 12 11 14 13 11 8 6 9 13 13 15 13 10 8 7 6 6 5 4 4 5 5 4 6 7 7 8 8 7 7 7 6 6 7 7 6 5 5 4 2 2 4 3 2 1 4 0 1 3 3 3 4 4 5 6 5 5 7 7 5 5 5 6 8 8 9 10 11 13 15
21 22 24 26 26 26 23 21 21 21 20 18 18 17 16 14 13 15 15 13 13 10 11 13 13 14 13 10 8 8 7 6 5 4 4 5 6 5 6 7 7 7 7 8 8 6 7 7 6 7 7 6 5 5 3 4 7 7 5 6 7 3 3 1 0 1 2 5 7 7 7 6 7 8 7 7 7 8 10 10 10 11 12 13 15
24 24 23 24 27 27 23 21 21 23 21 19 19 19 18 16 15 18 17 16 16 13 13 13 12 13 12 11 9 8 6 6 6 6 6 6 6 6 7 8 7 7 7 8 8 7 7 6 6 7 7 6 4 5 4 5 8 11 12 12 10 6 5 5 5 4 4 6 8 10 10 9 8 9 8 8 9 9 10 10 10 10 11 12 13
25 24 22 21 24 27 24 20 21 22 22 20 20 20 19 17 17 19 17 17 18 15 14 13 13 12 11 10 9 8 6 6 6 6 6 6 6 6 7 7 6 7 8 8 8 9 8 7 8 8 8 7 3 4 7 8 10 12 13 13 12 10 7 7 8 8 8 8 9 10 11 11 11 11 10 9 9 9 9 10 10 10 10 11 12
24 24 24 21 23 28 25 22 22 22 22 22 22 21 20 17 18 19 17 17 18 16 16 15 14 14 12 10 9 9 7 6 7 7 7 7 7 7 8 8 7 9 9 8 9 9 9 9 10 9 9 7 3 6 11 11 11 12 13 13 13 13 12 10 9 9 10 10 10 11 11 12 13 13 11 10 9 9 9 9 9 9 9 10 11
25 25 25 22 23 29 27 25 24 22 22 23 23 22 20 18 18 18 16 15 14 16 17 16 15 14 12 11 10 9 8 7 7 7 9 9 8 8 9 9 9 9 9 10 9 8 9 9 10 11 9 7 6 9 12 12 13 14 14 14 13 13 13 13 12 10 10 11 11 12 13 13 13 13 12 9 8 8 8 8 8 8 8 9 10
26 26 25 22 24 29 27 26 27 24 23 24 24 22 20 19 19 18 16 14 15 17 17 15 14 14 12 12 11 9 8 7 7 8 9 10 9 9 10 10 10 10 9 10 10 10 11 11 12 11 10 9 9 11 12 13 13 13 14 13 13 12 13 13 13 11 9 8 8 9 10 11 12 12 11 10 8 6 6 7 7 8 8 9 9
27 27 27 24 25 30 28 27 28 26 25 26 25 23 21 19 20 19 15 15 17 17 16 15 14 14 12 12 11 9 8 8 7 9 10 11 10 10 11 12 11 11 10 11 11 10 10 11 11 11 13 13 12 14 15 16 15 14 14 13 13 13 14 14 12 11 9 8 8 8 9 9 10 9 9 8 7 6 6 6 7 7 7 8 8
31 29 28 26 25 29 30 28 29 27 26 28 27 24 20 19 20 19 16 16 17 16 16 16 15 15 14 13 11 9 8 8 8 10 11 11 11 12 13 12 12 12 11 13 12 9 9 11 10 12 16 15 14 16 17 18 18 16 14 12 13 13 14 13 11 10 9 8 8 8 8 8 8 6 5 6 6 6 6 7 6 6 6 7 7
35 32 30 28 27 30 32 31 30 28 27 28 27 24 21 20 21 20 17 17 17 16 16 17 17 17 16 13 12 10 8 8 9 10 11 12 13 14 14 14 14 14 14 15 14 13 12 14 14 13 18 16 14 17 19 19 17 13 10 9 9 11 11 10 8 7 6 6 7 6 6 5 5 4 3 4 5 5 6 7 7 7 7 7 7
35 34 32 30 30 32 33 33 33 31 28 28 27 25 24 23 23 21 19 19 20 18 17 18 19 18 16 14 12 11 9 9 10 10 12 14 14 15 16 15 15 15 16 15 15 16 14 14 15 14 17 17 14 17 18 18 14 10 7 6 6 8 8 6 5 4 4 4 5 4 3 3 3 4 4 5 4 3 4 5 6 8 9 10 10
34 34 34 32 32 33 34 35 35 33 31 31 30 28 27 26 26 23 20 21 22 21 20 19 18 16 15 14 13 12 11 11 11 12 14 15 16 16 16 15 15 15 15 14 16 17 13 12 13 13 16 16 15 17 16 15 12 9 7 5 7 8 6 5 4 4 3 3 3 3 4 4 3 4 5 5 3 2 3 4 6 7 8 10 10
37 36 35 33 32 33 34 36 36 34 33 33 33 29 28 27 25 23 20 22 23 22 21 20 18 16 15 13 13 13 12 12 13 13 15 16 17 17 16 15 15 14 15 16 18 17 15 13 13 13 15 16 17 17 16 15 11 8 6 6 9 7 4 4 4 4 3 2 2 2 4 4 4 3 5 5 3 3 3 4 5 7 8 8 9
38 37 36 34 33 33 34 36 36 34 34 35 33 29 27 26 24 21 21 22 22 21 20 19 18 17 15 14 14 15 14 14 14 14 15 15 16 16 15 14 14 13 15 17 19 19 17 16 13 14 16 17 18 18 17 16 12 10 8 6 7 6 4 5 5 5 3 2 1 2 2 4 4 4 5 4 4 5 5 4 5 7 8 8 10
38 38 39 37 35 34 34 35 35 34 35 35 33 29 27 25 23 21 20 22 22 21 21 19 18 18 16 16 16 16 15 16 17 16 16 16 16 16 15 14 13 13 13 14 16 16 17 16 14 16 20 18 19 20 19 18 15 12 9 5 5 5 5 6 7 6 4 3 2 1 3 5 5 6 6 5 6 6 6 6 6 8 9 10 11
40 39 40 39 36 35 35 35 35 36 36 35 32 29 28 26 25 23 22 23 23 23 23 21 20 19 18 18 17 15 14 14 15 16 16 17 17 16 15 13 12 12 13 13 13 12 14 16 15 17 21 20 20 22 20 18 15 12 9 6 6 7 8 7 7 7 6 5 2 2 3 4 6 6 6 5 6 6 7 7 6 7 10 12 13
42 40 40 39 36 35 35 34 35 37 37 35 33 31 30 30 29 28 28 27 26 25 25 24 22 21 19 19 17 16 14 14 14 14 15 15 14 15 15 13 13 13 13 14 13 12 14 18 18 17 19 20 21 21 20 18 16 13 11 9 7 6 7 8 8 7 7 5 2 1 2 3 6 7 7 8 8 8 8 7 7 9 11 13 14
43 42 41 38 35 35 35 35 35 37 37 35 33 32 32 32 31 31 30 29 28 27 25 24 23 20 19 19 19 18 16 16 15 15 15 14 12 14 15 13 13 13 12 13 14 14 15 17 18 19 19 19 20 19 19 18 18 17 15 12 9 6 5 6 7 6 5 5 2 2 3 4 5 6 7 10 10 10 9 7 8 11 13 13 14
43 43 42 38 36 35 34 35 36 37 38 35 34 34 34 34 33 31 30 29 28 27 26 24 23 21 20 21 21 20 18 17 17 16 16 14 12 14 15 13 13 13 13 14 14 15 14 14 15 17 19 18 17 17 18 18 19 19 18 16 12 8 6 7 7 5 3 3 2 2 3 3 4 5 7 9 11 10 9 8 8 11 14 15 15
43 43 43 39 37 36 34 35 36 37 38 36 35 35 35 35 34 32 31 30 28 27 26 25 24 22 21 21 21 20 19 18 17 17 16 14 12 14 15 14 13 13 13 12 12 13 13 12 13 15 17 18 16 14 14 15 16 18 18 16 13 11 11 11 9 7 4 2 1 1 1 2 3 4 4 7 10 10 9 11 12 13 15 17 18
43 43 42 40 38 36 36 37 37 37 38 37 37 36 36 36 34 32 32 31 30 29 27 24 24 23 22 21 21 21 21 19 18 17 16 13 12 13 14 14 14 13 12 11 11 11 12 13 13 13 15 16 16 14 13 13 13 14 14 14 13 13 14 14 12 11 9 6 4 1 0 2 4 4 4 5 7 9 9 12 15 15 15 18 19
43 44 43 42 39 37 39 39 38 37 38 38 38 38 37 36 35 34 33 32 31 31 29 26 24 23 22 21 22 23 21 18 18 17 16 16 14 13 13 14 14 13 12 11 11 11 12 13 13 14 15 15 15 14 13 13 12 12 11 12 12 12 12 13 13 13 12 9 6 4 3 1 3 4 4 5 6 7 8 11 14 14 14 16 17
Wind_Direction
175 174 173 171 171 168 159 149 142 137 136 132 126 123 119 115 113 112 111 107 104 101 96 90 82 73 68 65 58 56 56 50 44 48 60 84 100 108 117 118 114 114 121 118 117 122 121 122 122 120 118 116 113 111 110 108 106 103 98 91 85 80 77 74 73 73 69 65 61 58 51 42 38 36 34 31 28 27 27 28 28 26 24 24 24
169 173 178 174 175 172 163 152 144 141 139 136 129 125 121 118 118 116 114 111 108 104 98 91 81 71 68 66 62 61 57 49 47 53 66 83 98 107 113 116 116 115 119 118 120 121 120 123 122 121 120 116 113 110 109 106 104 100 93 87 82 80 75 70 69 68 65 60 56 56 51 40 33 33 30 26 22 19 18 17 18 21 23 23 21
171 171 178 175 176 174 167 156 146 143 142 139 131 126 123 122 122 121 118 115 112 106 101 92 80 74 74 73 66 63 57 53 53 56 69 82 95 107 110 113 116 112 112 119 124 120 120 124 123 123 121 116 112 110 108 105 101 96 89 85 83 78 71 67 65 62 57 52 49 51 50 38 28 28 27 22 18 15 15 13 15 19 23 24 22
184 174 178 177 175 175 171 160 148 145 144 141 134 128 125 126 126 124 122 119 115 109 103 93 81 81 81 76 67 64 61 57 55 58 72 84 95 106 111 113 112 109 108 118 125 121 121 123 123 123 120 116 112 109 107 104 99 93 88 85 82 76 72 71 66 60 52 43 38 40 42 35 23 23 25 22 18 16 16 16 18 20 24 25 22
191 181 179 178 174 174 172 162 150 146 147 144 136 131 129 130 129 127 124 121 116 112 106 95 89 90 86 76 66 66 66 60 56 60 71 86 98 107 114 115 113 114 114 121 126 123 122 123 123 122 119 116 111 108 105 102 97 91 88 85 81 75 75 75 71 64 54 44 32 30 34 30 18 17 22 23 22 20 21 21 22 23 25 24 21
190 186 180 178 175 173 172 163 154 149 149 146 138 135 133 133 131 131 127 123 119 114 110 102 98 95 89 78 68 69 69 64 59 60 69 84 98 108 116 118 119 120 120 125 127 126 125 125 124 122 119 115 110 108 104 101 96 92 89 85 80 77 79 78 76 69 60 53 36 27 31 26 12 11 17 22 23 23 25 25 25 25 25 23 20
188 188 182 179 176 172 171 163 157 152 151 149 142 139 136 136 133 133 129 125 122 118 114 107 104 99 93 83 73 73 71 65 61 61 68 82 96 108 120 123 124 124 125 129 129 129 129 127 125 123 120 115 111 108 104 100 96 93 90 86 83 82 85 82 77 74 65 59 43 30 29 18 2 6 14 22 23 22 24 24 24 23 23 21 19
188 191 186 179 176 173 170 164 160 155 154 152 146 143 140 138 135 134 132 129 126 124 119 112 109 103 96 88 80 80 74 62 60 64 71 85 97 109 123 127 126 127 131 133 132 133 132 129 127 125 121 116 112 108 104 98 95 92 91 88 84 85 88 88 80 77 69 55 36 25 20 7 359 6 14 21 22 21 21 21 20 18 19 19 17
196 193 186 179 176 173 170 165 161 159 157 155 150 146 143 140 138 138 135 133 130 126 122 118 115 108 99 89 85 83 74 58 57 69 77 89 98 112 126 131 132 133 135 136 136 136 134 132 129 126 122 117 112 107 102 96 94 90 90 88 84 87 89 90 84 78 74 64 34 11 7 5 2 6 13 19 21 20 19 18 17 16 18 18 18
195 188 182 176 175 174 171 166 163 163 160 157 154 150 147 143 141 142 138 137 133 130 126 122 118 108 101 93 89 82 65 54 63 79 89 96 103 114 130 137 137 137 138 137 137 138 136 134 132 129 125 120 114 107 102 97 94 89 89 88 88 91 90 88 81 75 81 95 64 354 357 1 357 360 9 17 20 18 16 16 15 16 17 18 20
176 175 176 173 173 175 170 167 165 165 163 160 158 153 149 147 145 144 141 141 138 135 131 125 117 104 97 92 85 75 60 56 64 82 100 107 111 118 129 138 138 138 139 138 139 140 139 137 135 132 129 123 117 109 105 100 94 90 90 91 93 93 89 80 69 70 88 124 167 338 350 350 350 356 6 15 18 17 14 15 15 14 15 16 19
151 162 170 172 172 173 171 168 166 165 165 163 161 157 153 150 146 145 143 142 142 139 133 124 114 100 86 78 68 64 61 65 73 86 108 117 121 125 131 138 140 141 142 141 143 144 142 140 139 135 132 127 119 112 108 103 95 92 93 95 95 94 88 69 52 56 85 132 161 338 347 344 350 359 6 14 16 15 13 14 14 14 14 13 15
145 156 166 173 172 171 172 168 167 165 165 165 163 159 156 153 148 146 145 143 142 137 131 123 112 102 80 60 59 62 65 76 88 98 112 124 133 137 138 142 144 146 146 146 147 147 146 144 142 138 135 129 121 115 110 103 93 91 94 97 97 97 86 60 43 49 70 99 90 335 344 347 351 359 6 12 15 14 13 14 14 14 14 13 13
159 170 171 175 173 171 172 169 168 166 165 165 164 162 159 155 150 148 146 142 139 134 128 125 117 108 100 76 74 72 74 80 91 105 117 129 141 147 147 148 149 151 150 150 151 151 151 150 147 144 139 133 125 121 114 97 87 83 86 95 105 112 88 60 54 62 71 59 328 314 337 349 349 356 3 10 14 15 13 13 15 16 16 15 17
175 177 179 179 175 171 169 168 168 167 166 164 164 164 161 156 151 149 144 139 137 134 130 125 121 119 121 110 104 92 88 85 91 108 120 132 143 151 154 154 153 154 154 154 156 156 155 155 154 151 146 139 134 128 114 88 76 73 74 83 106 130 97 72 73 69 65 358 339 331 340 347 348 355 0 7 15 15 13 15 17 17 15 16 19
190 183 182 180 177 172 168 167 168 167 165 164 165 164 161 156 151 148 142 139 137 134 129 121 120 123 124 120 117 106 97 92 93 108 122 135 144 151 157 159 158 157 158 161 162 161 161 161 159 157 153 147 144 132 103 77 65 65 67 82 111 136 125 95 85 73 49 349 348 349 345 346 349 356 358 7 14 13 13 15 17 15 13 15 16
189 189 187 180 177 172 168 165 166 167 165 166 166 163 160 154 149 147 142 140 135 129 123 119 123 123 126 125 119 108 97 92 93 108 125 135 144 152 159 163 164 161 161 165 167 166 165 165 164 163 160 158 155 120 88 71 65 62 64 93 121 135 137 98 94 108 22 339 337 343 346 346 349 356 358 6 12 10 11 13 15 13 10 11 12
165 177 186 180 175 170 168 166 167 167 167 167 164 162 158 152 149 146 142 140 131 123 120 122 126 126 128 124 118 107 96 93 93 104 123 135 145 153 160 164 166 164 164 166 169 169 168 168 167 165 165 163 141 97 79 71 67 61 72 113 137 143 125 79 92 211 326 318 324 334 338 343 346 354 357 4 8 5 7 11 14 11 8 7 8
140 146 178 178 171 169 169 167 169 168 168 167 162 160 154 151 149 146 139 135 129 121 123 127 130 130 130 126 116 104 93 92 91 99 115 128 141 149 157 162 164 164 164 165 167 168 167 168 167 165 161 142 107 94 82 75 72 72 93 126 153 150 75 66 243 276 315 307 316 326 329 342 345 350 355 0 1 360 3 6 11 9 6 5 4
140 129 170 177 169 169 169 167 169 166 167 163 159 157 151 151 147 145 139 136 133 124 129 132 135 134 132 126 114 102 94 91 89 94 106 115 126 135 147 155 158 161 161 161 163 164 165 163 160 149 127 110 104 102 89 79 78 91 109 129 158 135 43 294 265 291 332 327 325 326 330 344 346 350 355 358 356 356 1 2 6 7 8 4 0
161 145 165 179 170 168 169 168 167 163 163 159 158 156 150 151 149 147 143 143 136 127 134 137 139 138 131 123 114 108 99 90 87 92 101 108 112 115 130 145 150 157 159 159 159 156 153 148 137 127 123 119 123 116 95 87 89 95 111 116 134 30 331 264 281 306 326 330 323 320 331 346 350 353 356 357 354 355 360 2 7 10 11 5 360
167 160 166 181 174 169 169 168 166 160 160 160 159 156 154 153 152 153 147 145 136 130 137 142 143 136 129 122 115 111 105 93 88 95 99 104 110 115 122 134 140 143 147 145 144 140 136 135 132 134 132 121 120 121 106 103 103 90 83 49 14 330 274 275 292 308 311 317 316 319 331 347 350 354 358 359 1 6 10 15 17 12 13 11 6
172 171 172 180 177 171 168 168 165 161 161 163 162 158 159 155 155 156 150 148 139 134 138 145 143 135 131 132 126 115 108 98 91 96 95 98 107 114 122 128 133 133 138 138 137 136 133 136 138 138 133 120 111 121 126 125 127 124 167 330 355 289 282 295 307 306 308 317 320 324 333 343 354 7 12 17 21 21 23 29 27 14 17 19 13
180 184 184 180 178 172 169 171 167 164 164 165 165 162 161 160 162 158 153 152 142 140 142 145 140 132 131 136 136 120 108 103 101 101 95 96 100 109 118 124 132 133 136 139 139 136 134 138 144 146 140 135 131 136 135 132 166 183 235 290 320 302 297 318 327 316 323 334 327 325 335 343 8 34 36 39 38 31 30 34 28 15 17 19 14
192 193 192 181 177 175 171 174 171 168 168 168 168 166 165 166 165 161 157 153 147 145 144 146 144 136 125 120 124 111 103 107 111 111 106 107 109 117 123 128 139 140 138 138 140 139 138 142 148 158 160 160 165 165 144 150 220 256 291 297 322 300 297 317 322 339 348 343 329 314 327 339 14 58 54 44 42 36 27 25 20 11 10 12 7
201 191 190 180 176 181 179 181 177 172 173 172 172 171 170 170 164 160 158 152 152 154 152 154 155 146 125 117 130 124 121 130 132 129 130 137 138 142 142 144 149 145 145 143 143 146 151 152 155 170 173 171 169 145 132 187 256 305 316 309 301 274 294 327 325 359 355 340 336 317 318 323 322 78 79 60 53 38 21 23 23 11 3 2 355
199 189 189 178 174 184 190 188 181 178 177 174 177 176 175 173 164 158 160 155 154 165 164 154 151 147 143 162 182 172 158 159 165 152 153 161 160 163 166 168 161 153 155 155 158 162 168 168 176 193 178 160 156 126 108 182 258 284 316 93 245 259 306 349 336 356 359 351 343 335 325 311 294 265 158 109 67 16 8 18 13 355 346 345 340
196 188 186 177 176 189 196 192 185 182 180 179 181 179 179 176 164 154 157 156 150 159 160 148 153 166 176 191 200 199 173 168 188 182 177 177 178 181 180 184 177 170 170 169 173 174 173 165 166 192 179 162 164 159 156 207 229 175 131 134 220 262 331 15 358 356 2 349 321 327 335 325 305 293 261 243 268 290 311 327 335 332 333 329 317
196 183 176 174 182 195 201 197 187 184 183 183 183 179 180 179 161 147 149 153 146 147 159 164 179 185 190 198 199 207 197 190 200 197 194 192 203 199 188 198 197 191 186 178 179 181 176 158 150 164 173 174 175 175 194 248 213 119 3 349 159 289 6 46 29 1 358 333 314 321 338 350 342 318 296 295 302 308 314 317 321 322 325 321 313
196 180 172 174 186 197 200 199 189 185 185 184 184 179 181 182 162 150 150 160 170 181 185 181 182 183 192 200 197 205 209 207 209 208 197 196 212 209 200 213 211 200 193 187 189 191 183 163 162 171 177 180 165 157 151 145 148 129 339 90 117 160 358 54 34 359 341 313 313 319 331 353 1 351 330 319 325 328 328 325 323 323 322 317 316
193 184 176 178 188 196 199 198 191 186 184 182 182 179 183 185 166 157 158 172 193 203 198 188 180 184 192 198 202 208 208 205 208 222 214 202 209 207 206 215 215 208 202 198 199 200 192 178 180 180 173 177 151 130 122 130 143 146 146 130 121 156 220 193 2 325 289 285 295 306 316 336 355 356 346 336 337 334 329 324 321 321 319 316 318
192 190 183 182 189 194 198 198 192 188 184 181 181 182 188 185 172 168 165 180 200 202 195 186 180 188 194 198 205 208 205 197 199 217 220 205 203 201 200 206 210 210 202 197 200 201 197 187 196 196 184 193 161 121 142 156 155 155 155 153 149 166 201 204 213 229 248 266 279 293 308 323 334 340 340 337 333 330 325 322 321 320 321 322 325
193 195 191 189 190 191 198 199 194 193 187 184 186 187 192 187 178 179 176 185 200 202 191 177 178 192 197 200 205 208 207 199 200 213 216 203 201 199 199 206 208 205 197 194 198 198 196 191 199 209 207 212 192 158 189 186 171 170 174 177 176 181 196 207 221 239 254 266 278 290 301 311 318 325 333 333 331 330 326 324 326 328 332 333 333
194 200 199 196 192 188 196 200 198 200 192 189 192 191 194 186 178 183 185 190 199 203 190 173 183 200 203 204 206 210 211 205 203 207 208 200 198 199 202 208 204 201 198 195 198 195 196 197 199 205 201 197 173 180 201 202 193 189 193 199 195 192 198 211 226 239 254 268 282 290 296 303 310 317 324 329 331 330 327 327 331 334 336 336 336
197 202 203 200 193 189 196 201 201 204 198 193 195 196 196 184 175 184 193 198 196 194 187 179 191 204 205 207 211 215 216 211 203 200 202 198 199 206 207 207 204 204 201 197 199 198 198 198 200 198 180 165 171 190 202 207 207 205 207 210 208 206 207 214 223 232 248 265 283 294 300 304 306 310 314 319 325 328 327 330 335 337 338 338 339
200 204 204 201 193 189 197 203 202 205 203 199 197 198 198 184 178 189 199 197 182 179 184 187 199 205 203 207 212 217 222 220 213 205 204 202 203 207 207 206 204 202 202 202 204 204 200 195 200 194 166 164 191 203 209 215 217 218 221 219 220 221 218 216 219 227 240 255 273 288 294 298 299 303 310 316 325 334 333 335 342 343 343 344 343
199 202 202 201 194 191 198 204 203 206 208 204 200 199 197 185 180 192 197 188 177 178 186 191 199 203 202 207 210 217 224 224 223 213 206 205 206 203 202 205 202 196 198 205 206 209 209 203 202 188 171 180 200 207 213 222 227 230 233 236 238 234 222 217 221 233 251 262 269 276 282 287 291 298 309 315 325 339 339 342 351 351 350 352 349
195 200 204 202 198 196 200 205 204 206 209 206 203 199 194 185 183 192 195 187 183 185 190 191 196 202 207 211 211 216 221 220 221 218 211 206 205 202 201 203 201 195 197 202 202 206 219 225 220 191 182 191 205 209 214 223 231 236 242 250 253 245 228 219 224 236 251 264 270 275 278 277 278 289 304 309 323 340 340 343 353 1 4 7 4
194 201 207 204 202 200 200 207 208 207 209 206 203 198 190 185 186 193 195 190 185 183 190 193 197 206 212 213 211 216 218 215 217 219 215 205 202 204 203 204 203 200 204 206 206 208 215 226 224 197 189 198 209 213 217 222 228 234 244 257 257 242 228 217 219 229 245 265 273 274 269 269 280 301 314 317 333 341 340 343 353 7 14 19 25
193 199 204 202 201 200 200 207 210 211 211 207 202 196 189 185 190 196 195 190 185 183 192 198 201 208 213 212 212 216 217 215 217 217 212 205 204 209 207 207 207 205 208 211 217 222 219 219 218 199 191 200 207 213 221 223 224 230 240 255 239 215 211 212 217 228 245 260 268 274 281 298 309 314 322 325 336 346 349 356 5 13 19 22 25
193 196 200 200 201 202 203 206 208 212 213 207 202 197 192 190 195 201 196 191 189 190 196 202 207 207 209 211 212 214 215 214 212 204 200 200 204 210 211 213 211 209 211 217 226 229 222 213 211 196 189 199 206 211 220 224 228 237 240 223 188 183 197 209 222 246 246 231 235 265 298 311 310 317 321 315 330 22 33 25 29 27 28 27 23
193 196 201 202 204 207 209 208 207 211 212 207 203 199 197 199 203 203 197 195 196 198 202 204 206 204 205 212 212 209 207 208 207 200 199 204 208 210 214 218 218 217 221 222 224 225 222 218 217 202 192 199 206 209 215 221 230 234 225 191 169 168 185 198 221 247 231 202 225 259 289 309 315 317 309 306 339 27 48 52 48 44 42 39 32
196 199 204 205 209 211 211 209 209 211 209 205 204 202 201 204 208 204 198 198 199 201 204 204 204 204 204 208 211 208 201 200 200 200 204 211 215 214 216 221 224 226 225 216 213 218 220 220 216 200 193 198 203 206 212 218 221 216 213 201 182 184 196 199 213 226 213 185 215 262 305 342 349 323 307 323 1 19 39 57 63 58 52 48 44
199 201 204 205 210 213 211 210 209 209 207 204 205 205 203 203 205 204 200 200 200 200 200 201 205 206 205 206 210 211 205 201 200 200 205 213 221 225 228 228 225 226 226 219 213 213 212 212 208 191 191 200 203 205 212 216 218 215 211 200 192 206 220 216 206 202 203 183 160 9 359 1 350 325 318 347 10 11 19 29 52 60 54 48 44
200 203 205 204 208 213 213 210 209 208 206 204 204 203 202 200 197 196 195 195 199 201 198 198 202 205 206 206 210 213 210 209 210 209 210 217 226 231 233 229 223 222 225 225 222 215 207 206 206 195 193 201 209 212 214 215 219 221 211 194 194 213 224 220 203 197 200 183 151 9 4 4 354 347 351 15 20 5 2 12 30 49 53 47 41
202 206 206 204 207 213 211 209 209 208 205 203 202 203 202 200 197 194 192 193 197 202 202 203 203 203 204 205 207 207 204 208 218 223 222 224 227 226 225 219 217 218 218 222 223 222 212 206 208 205 197 200 208 215 215 212 216 219 213 206 205 212 210 201 193 196 206 201 204 262 270 343 3 8 15 27 26 9 0 11 32 41 46 44 36
203 205 204 204 209 211 209 208 210 208 205 202 202 203 202 202 200 198 197 199 200 202 206 209 208 206 204 204 206 203 202 209 221 230 233 232 225 219 218 215 215 216 216 219 221 221 215 208 209 208 201 202 205 212 218 218 219 218 217 217 224 235 224 209 206 206 218 224 227 242 270 319 352 3 5 13 18 15 11 19 42 47 45 41 33
202 202 202 204 208 209 207 208 210 210 206 203 202 203 202 203 201 199 200 203 205 205 205 208 208 208 206 207 208 204 202 211 221 228 233 236 227 216 214 212 212 215 217 219 218 218 215 210 209 203 203 209 209 212 219 220 219 219 221 225 231 237 227 223 223 213 227 254 252 267 279 299 337 352 348 357 6 9 11 13 34 47 43 35 28
201 201 201 203 206 206 205 207 211 211 207 204 204 203 203 204 203 201 201 203 207 209 207 207 209 209 210 208 206 203 202 208 218 226 231 234 225 213 212 212 213 218 220 222 220 216 215 215 210 203 207 215 218 222 224 221 219 218 220 220 219 216 208 209 210 202 208 239 257 301 320 296 335 348 335 345 354 354 359 6 17 29 29 22 15
201 201 200 200 203 204 203 206 212 212 207 205 206 205 204 205 206 206 206 204 206 210 210 210 210 211 210 206 201 200 203 207 215 225 229 225 213 206 211 216 220 225 225 227 225 217 215 216 211 209 213 219 224 230 232 228 221 216 214 211 208 209 207 208 209 207 214 225 229 215 93 331 336 339 335 336 339 347 2 11 14 15 14 7 359
199 199 199 198 201 203 203 206 211 212 209 206 207 207 207 208 212 213 210 207 208 210 211 211 212 212 209 204 199 199 203 207 212 221 224 219 211 206 211 218 223 229 231 230 229 221 214 213 212 213 216 220 224 227 230 229 222 216 214 210 212 215 212 213 215 216 219 217 211 201 190 239 312 322 331 325 328 357 22 23 17 12 7 358 346
Height
1544 1545 1547 1547 1549 1550 1551 1551 1552 1552 1553 1554 1553 1554 1554 1555 1556 1556 1557 1558 1558 1558 1558 1559 1559 1559 1560 1560 1560 1560 1560 1560 1559 1559 1559 1559 1559 1559 1560 1561 1561 1562 1563 1563 1564 1564 1565 1565 1566 1567 1568 1568 1569 1570 1571 1571 1571 1572 1572 1572 1572 1572 1571 1571 1571 1571 1570 1570 1570 1569 1569 1569 1569 1568 1567 1566 1565 1565 1564 1563 1562 1562 1561 1560 1559
1542 1545 1547 1547 1549 1550 1551 1551 1552 1552 1553 1554 1554 1554 1555 1556 1556 1557 1557 1558 1558 1559 1559 1559 1560 1560 1560 1560 1561 1560 1561 1560 1560 1559 1559 1559 1560 1560 1560 1561 1562 1564 1564 1565 1566 1566 1567 1567 1568 1568 1569 1570 1571 1571 1572 1573 1573 1573 1573 1573 1573 1573 1573 1573 1572 1572 1571 1571 1571 1570 1570 1570 1570 1569 1568 1568 1567 1566 1565 1564 1563 1562 1561 1560 1560
1543 1544 1546 1547 1549 1550 1551 1551 1552 1553 1554 1554 1554 1555 1555 1556 1556 1557 1558 1559 1559 1559 1560 1560 1560 1560 1561 1561 1561 1561 1561 1561 1561 1560 1560 1560 1561 1561 1561 1562 1563 1565 1566 1566 1567 1568 1569 1569 1570 1570 1571 1571 1572 1573 1573 1574 1574 1575 1575 1575 1575 1574 1574 1574 1573 1573 1572 1572 1572 1571 1571 1571 1571 1570 1569 1568 1567 1566 1566 1565 1564 1563 1562 1561 1560
1544 1544 1546 1547 1549 1550 1551 1552 1553 1553 1554 1554 1555 1555 1555 1556 1557 1558 1558 1559 1559 1560 1560 1560 1561 1561 1561 1561 1562 1562 1562 1562 1562 1561 1561 1561 1561 1562 1562 1563 1564 1566 1567 1568 1568 1569 1570 1571 1572 1572 1573 1573 1573 1574 1574 1575 1575 1576 1576 1576 1576 1575 1575 1575 1574 1574 1573 1573 1572 1572 1572 1572 1572 1571 1570 1569 1568 1567 1566 1565 1564 1563 1562 1561 1561
1544 1544 1545 1547 1549 1550 1551 1552 1553 1553 1554 1555 1555 1555 1556 1557 1557 1558 1558 1559 1559 1560 1560 1561 1561 1561 1562 1562 1562 1562 1563 1563 1563 1562 1562 1562 1562 1563 1563 1564 1565 1567 1568 1568 1569 1570 1571 1572 1573 1574 1574 1574 1575 1575 1575 1576 1576 1577 1577 1577 1576 1576 1576 1576 1575 1575 1574 1574 1573 1573 1573 1572 1572 1572 1571 1570 1569 1568 1567 1566 1565 1564 1563 1562 1561
1544 1544 1545 1547 1548 1550 1551 1552 1553 1554 1555 1555 1555 1556 1556 1557 1558 1558 1559 1560 1560 1560 1561 1561 1562 1562 1562 1562 1563 1563 1563 1564 1564 1563 1563 1563 1563 1564 1564 1565 1566 1567 1568 1569 1570 1571 1572 1573 1574 1574 1575 1576 1576 1576 1577 1577 1577 1577 1577 1577 1577 1577 1577 1577 1576 1576 1575 1575 1574 1573 1573 1573 1573 1573 1572 1571 1570 1569 1568 1567 1566 1565 1564 1563 1562
1543 1544 1545 1546 1548 1550 1551 1552 1553 1554 1554 1555 1556 1556 1557 1557 1558 1559 1559 1560 1560 1561 1561 1562 1562 1563 1563 1563 1563 1563 1564 1564 1564 1564 1564 1564 1564 1565 1565 1566 1567 1568 1569 1570 1571 1572 1573 1574 1575 1575 1576 1576 1577 1577 1578 1578 1578 1578 1578 1578 1578 1578 1578 1578 1577 1577 1576 1575 1575 1574 1574 1574 1574 1574 1573 1572 1571 1570 1569 1568 1567 1566 1565 1564 1563
1543 1544 1545 1546 1548 1550 1551 1552 1553 1554 1555 1555 1556 1557 1557 1558 1558 1559 1560 1560 1561 1561 1562 1562 1563 1563 1563 1564 1564 1564 1564 1565 1565 1565 1565 1565 1565 1566 1566 1567 1568 1569 1570 1571 1572 1573 1574 1575 1576 1576 1577 1577 1578 1578 1578 1579 1579 1579 1579 1579 1579 1579 1579 1579 1578 1578 1577 1576 1575 1575 1575 1575 1575 1574 1573 1572 1571 1570 1569 1568 1567 1566 1566 1565 1564
1542 1543 1545 1546 1548 1549 1551 1552 1553 1553 1554 1555 1556 1557 1558 1558 1559 1559 1560 1561 1561 1562 1562 1562 1563 1564 1564 1564 1564 1565 1565 1565 1566 1566 1566 1566 1566 1567 1567 1568 1569 1570 1570 1572 1573 1574 1575 1576 1577 1577 1578 1578 1578 1579 1579 1579 1579 1580 1580 1580 1580 1580 1580 1579 1579 1579 1578 1577 1576 1576 1576 1576 1575 1574 1573 1573 1572 1571 1570 1569 1568 1567 1566 1565 1564
1541 1543 1545 1546 1547 1549 1550 1552 1552 1553 1554 1555 1557 1557 1558 1559 1559 1560 1560 1561 1562 1562 1562 1563 1563 1564 1564 1565 1565 1565 1566 1566 1566 1566 1567 1567 1567 1567 1568 1569 1569 1571 1572 1573 1574 1575 1576 1577 1577 1578 1579 1579 1579 1580 1580 1580 1580 1580 1580 1581 1581 1581 1580 1580 1580 1580 1579 1578 1577 1577 1577 1576 1575 1575 1574 1573 1573 1572 1571 1570 1569 1568 1567 1566 1565
1540 1543 1545 1546 1547 1549 1550 1551 1552 1553 1554 1555 1557 1557 1558 1559 1559 1560 1561 1561 1562 1563 1563 1563 1564 1564 1565 1565 1565 1566 1566 1567 1567 1567 1567 1568 1568 1568 1569 1570 1571 1572 1573 1574 1575 1576 1577 1578 1578 1579 1579 1580 1580 1580 1581 1581 1581 1581 1581 1581 1581 1581 1581 1581 1581 1580 1579 1578 1578 1578 1577 1577 1576 1575 1574 1574 1573 1572 1571 1570 1569 1568 1568 1567 1566
1541 1543 1544 1545 1546 1548 1550 1551 1552 1553 1554 1555 1556 1558 1559 1559 1560 1560 1561 1562 1563 1563 1564 1564 1564 1565 1565 1566 1566 1566 1567 1567 1568 1568 1568 1568 1569 1569 1570 1571 1572 1573 1573 1575 1575 1577 1578 1579 1579 1580 1580 1580 1581 1581 1581 1581 1582 1582 1582 1582 1582 1582 1581 1581 1580 1579 1578 1578 1578 1578 1578 1577 1576 1576 1575 1574 1574 1573 1572 1571 1570 1569 1568 1567 1566
1540 1542 1544 1545 1546 1547 1549 1550 1552 1553 1554 1555 1556 1558 1559 1559 1560 1561 1561 1562 1563 1564 1564 1565 1565 1565 1566 1566 1567 1567 1567 1567 1568 1568 1569 1569 1569 1570 1570 1571 1572 1573 1574 1575 1576 1577 1578 1579 1580 1580 1581 1581 1581 1582 1582 1582 1582 1583 1583 1583 1583 1582 1582 1581 1580 1579 1579 1578 1579 1579 1578 1577 1577 1576 1575 1575 1574 1573 1572 1571 1570 1569 1568 1568 1567
1541 1542 1544 1545 1546 1547 1548 1550 1551 1552 1554 1555 1556 1557 1559 1560 1560 1561 1562 1562 1563 1564 1565 1565 1565 1566 1566 1566 1567 1567 1568 1568 1568 1568 1569 1569 1570 1571 1571 1572 1573 1574 1575 1576 1577 1578 1579 1579 1580 1581 1581 1582 1582 1582 1583 1583 1583 1583 1583 1583 1583 1583 1582 1582 1580 1579 1580 1580 1579 1579 1578 1577 1577 1576 1575 1575 1574 1573 1572 1571 1570 1570 1569 1568 1567
1541 1542 1543 1545 1545 1546 1548 1549 1551 1552 1553 1555 1556 1557 1559 1560 1561 1561 1562 1563 1564 1564 1565 1565 1566 1566 1566 1567 1567 1568 1568 1568 1568 1569 1569 1570 1570 1571 1572 1572 1573 1574 1576 1577 1578 1578 1579 1580 1580 1581 1581 1582 1582 1583 1583 1583 1584 1584 1584 1584 1583 1583 1582 1582 1581 1580 1579 1579 1579 1579 1578 1577 1577 1576 1576 1575 1574 1573 1572 1571 1571 1570 1569 1568 1567
1541 1542 1543 1544 1545 1546 1547 1549 1550 1552 1553 1555 1556 1558 1559 1560 1561 1562 1562 1563 1564 1565 1565 1565 1566 1566 1566 1567 1568 1568 1568 1569 1569 1569 1569 1570 1571 1572 1572 1573 1574 1575 1576 1577 1578 1579 1579 1580 1580 1581 1581 1582 1583 1583 1584 1584 1584 1584 1584 1584 1583 1582 1582 1581 1581 1580 1579 1579 1579 1579 1578 1577 1577 1576 1576 1575 1574 1573 1573 1572 1571 1570 1569 1568 1567
1541 1542 1543 1544 1545 1546 1547 1548 1550 1552 1553 1555 1556 1558 1559 1560 1561 1562 1563 1563 1564 1565 1565 1566 1566 1566 1567 1567 1568 1569 1569 1569 1569 1570 1570 1571 1571 1572 1573 1574 1574 1575 1576 1577 1578 1579 1580 1580 1581 1581 1582 1583 1583 1584 1584 1585 1584 1584 1584 1584 1583 1582 1581 1581 1581 1580 1580 1580 1579 1579 1578 1578 1577 1577 1576 1575 1575 1574 1573 1572 1571 1570 1569 1568 1567
1541 1542 1542 1544 1545 1546 1547 1548 1549 1551 1553 1554 1556 1558 1559 1560 1561 1562 1563 1563 1564 1565 1565 1566 1566 1567 1567 1568 1568 1569 1569 1570 1570 1570 1570 1571 1572 1572 1573 1574 1575 1575 1576 1577 1578 1579 1580 1581 1582 1582 1583 1583 1584 1585 1585 1584 1584 1584 1584 1583 1583 1582 1582 1581 1580 1580 1580 1580 1579 1579 1578 1577 1577 1576 1576 1575 1575 1574 1573 1572 1571 1570 1569 1568 1567
1541 1541 1542 1543 1545 1546 1547 1547 1549 1551 1553 1554 1556 1557 1559 1560 1561 1562 1563 1564 1564 1565 1565 1566 1567 1567 1568 1568 1569 1569 1570 1570 1570 1571 1571 1571 1572 1573 1573 1575 1575 1576 1577 1578 1579 1580 1581 1582 1582 1583 1583 1584 1584 1585 1584 1584 1584 1583 1583 1583 1582 1582 1582 1581 1580 1579 1579 1579 1579 1578 1578 1577 1577 1576 1576 1575 1574 1573 1573 1572 1571 1570 1569 1568 1567
1541 1542 1542 1544 1545 1546 1547 1547 1549 1551 1553 1555 1556 1557 1559 1560 1561 1562 1563 1564 1564 1565 1566 1566 1567 1567 1568 1568 1569 1570 1570 1571 1571 1571 1571 1572 1572 1573 1574 1575 1576 1577 1578 1578 1579 1580 1581 1582 1583 1584 1584 1584 1584 1584 1584 1584 1583 1583 1583 1583 1583 1583 1582 1581 1580 1579 1579 1579 1579 1578 1578 1577 1576 1576 1575 1575 1574 1573 1572 1571 1570 1570 1569 1568 1567
1541 1542 1543 1544 1545 1546 1547 1547 1549 1551 1553 1554 1556 1557 1559 1560 1561 1562 1563 1564 1565 1565 1566 1567 1567 1568 1568 1569 1569 1570 1570 1571 1571 1571 1571 1572 1572 1573 1574 1575 1576 1577 1578 1579 1580 1581 1582 1582 1583 1583 1584 1584 1584 1584 1584 1583 1583 1583 1583 1583 1583 1583 1582 1581 1580 1580 1580 1580 1579 1578 1578 1577 1576 1576 1575 1574 1574 1573 1572 1571 1570 1569 1569 1568 1567
1541 1542 1543 1544 1545 1546 1546 1548 1549 1550 1552 1554 1556 1557 1559 1560 1561 1562 1563 1564 1565 1565 1566 1567 1568 1568 1568 1569 1570 1570 1570 1570 1571 1571 1571 1572 1573 1573 1574 1575 1576 1577 1578 1579 1580 1581 1581 1582 1582 1582 1583 1583 1583 1584 1584 1583 1583 1583 1583 1583 1583 1582 1581 1581 1580 1580 1580 1579 1579 1578 1578 1577 1576 1575 1575 1574 1574 1573 1572 1571 1570 1569 1569 1568 1567
1540 1541 1543 1544 1545 1545 1546 1547 1548 1550 1551 1553 1555 1557 1558 1560 1561 1562 1563 1564 1565 1566 1566 1567 1568 1568 1569 1569 1570 1570 1570 1570 1571 1571 1571 1572 1573 1573 1574 1575 1576 1577 1578 1579 1579 1580 1580 1581 1581 1581 1582 1583 1583 1583 1583 1583 1583 1583 1583 1583 1583 1582 1581 1580 1580 1580 1580 1579 1579 1578 1577 1577 1576 1575 1575 1574 1574 1573 1572 1571 1570 1569 1568 1567 1566
1539 1540 1542 1544 1545 1545 1546 1547 1548 1549 1551 1553 1555 1557 1558 1559 1561 1562 1563 1564 1565 1566 1566 1567 1568 1568 1568 1569 1569 1569 1569 1570 1571 1572 1572 1572 1573 1573 1574 1575 1575 1576 1577 1578 1578 1579 1579 1580 1580 1581 1581 1582 1583 1583 1583 1583 1582 1582 1582 1582 1582 1581 1580 1580 1580 1580 1580 1579 1579 1578 1577 1576 1576 1575 1575 1574 1574 1573 1572 1571 1570 1569 1568 1567 1566
1539 1540 1542 1543 1544 1544 1545 1546 1547 1549 1550 1553 1555 1556 1558 1559 1561 1562 1563 1564 1565 1566 1566 1567 1568 1568 1568 1568 1568 1568 1569 1570 1571 1571 1571 1572 1573 1573 1573 1574 1575 1575 1576 1577 1578 1578 1579 1579 1580 1580 1581 1582 1582 1582 1582 1582 1581 1581 1582 1582 1582 1580 1580 1580 1580 1580 1579 1579 1578 1577 1577 1576 1575 1575 1575 1574 1574 1573 1572 1571 1570 1569 1568 1567 1566
1539 1540 1541 1542 1543 1544 1544 1546 1547 1548 1550 1552 1554 1556 1557 1559 1561 1562 1563 1564 1565 1566 1566 1567 1567 1567 1568 1568 1568 1568 1569 1570 1570 1571 1571 1572 1572 1573 1573 1573 1574 1575 1576 1576 1577 1578 1579 1579 1580 1580 1581 1581 1582 1582 1581 1580 1580 1580 1582 1582 1581 1580 1580 1581 1580 1580 1579 1578 1577 1577 1576 1576 1575 1575 1574 1574 1573 1573 1572 1571 1570 1569 1567 1566 1565
1538 1539 1540 1541 1543 1543 1544 1545 1546 1547 1549 1552 1553 1555 1557 1559 1560 1562 1563 1564 1565 1566 1566 1566 1566 1567 1567 1568 1568 1568 1569 1569 1570 1571 1571 1572 1572 1572 1573 1573 1574 1575 1576 1576 1576 1576 1577 1578 1579 1579 1580 1580 1581 1581 1581 1580 1580 1581 1581 1581 1581 1580 1580 1581 1580 1579 1578 1578 1577 1576 1576 1575 1575 1575 1574 1574 1573 1572 1571 1571 1570 1569 1567 1566 1565
1537 1538 1539 1540 1542 1542 1544 1545 1546 1547 1549 1551 1553 1554 1556 1558 1560 1561 1563 1563 1564 1565 1565 1565 1566 1567 1568 1568 1568 1568 1569 1569 1570 1570 1571 1571 1572 1572 1572 1573 1574 1575 1575 1575 1575 1575 1576 1577 1578 1579 1580 1580 1580 1580 1580 1580 1580 1580 1581 1581 1580 1579 1580 1581 1580 1579 1578 1577 1576 1576 1575 1574 1574 1574 1574 1573 1572 1572 1571 1570 1570 1569 1567 1566 1565
1536 1537 1538 1539 1541 1542 1543 1544 1545 1546 1548 1550 1552 1554 1555 1557 1559 1561 1562 1563 1563 1564 1565 1565 1566 1567 1568 1568 1568 1568 1568 1569 1570 1570 1571 1571 1571 1572 1572 1573 1573 1574 1575 1575 1575 1575 1576 1576 1577 1578 1579 1580 1580 1580 1580 1580 1580 1579 1580 1580 1579 1578 1579 1580 1579 1578 1577 1576 1576 1575 1574 1574 1574 1573 1573 1573 1572 1572 1571 1570 1569 1568 1567 1565 1564
1535 1536 1537 1538 1540 1541 1542 1543 1544 1545 1547 1549 1551 1553 1554 1556 1558 1560 1561 1562 1563 1564 1565 1565 1566 1567 1567 1567 1567 1567 1568 1569 1569 1570 1570 1570 1570 1571 1571 1572 1572 1574 1574 1574 1574 1575 1575 1576 1576 1577 1578 1579 1579 1580 1580 1580 1580 1579 1579 1579 1579 1578 1578 1578 1578 1577 1577 1575 1575 1574 1574 1574 1573 1573 1573 1572 1572 1571 1570 1570 1569 1568 1566 1565 1563
1534 1535 1536 1538 1539 1540 1541 1542 1543 1544 1546 1548 1550 1552 1553 1555 1557 1559 1560 1562 1563 1564 1565 1565 1566 1566 1566 1567 1566 1567 1568 1568 1569 1569 1569 1570 1570 1570 1570 1571 1572 1573 1573 1574 1574 1574 1575 1575 1575 1576 1577 1578 1578 1578 1579 1580 1580 1579 1579 1578 1578 1578 1577 1578 1577 1577 1576 1575 1574 1573 1573 1573 1573 1573 1573 1572 1571 1570 1570 1569 1568 1567 1565 1564 1562
1533 1534 1535 1537 1538 1539 1540 1542 1542 1544 1545 1547 1549 1551 1552 1555 1557 1559 1560 1561 1563 1563 1564 1564 1565 1565 1565 1566 1566 1566 1567 1568 1568 1568 1569 1569 1569 1570 1570 1571 1571 1573 1573 1573 1573 1574 1574 1574 1574 1575 1576 1578 1578 1578 1579 1580 1579 1580 1580 1579 1579 1578 1577 1578 1577 1576 1575 1574 1574 1573 1573 1573 1573 1573 1573 1572 1571 1570 1569 1568 1567 1566 1565 1563 1562
1532 1533 1535 1537 1538 1539 1539 1541 1542 1543 1544 1546 1548 1550 1552 1554 1556 1558 1559 1561 1561 1562 1563 1564 1564 1564 1564 1565 1566 1566 1566 1567 1567 1567 1568 1568 1568 1569 1569 1570 1571 1572 1572 1573 1573 1573 1573 1573 1573 1574 1576 1577 1578 1579 1579 1579 1579 1580 1580 1580 1579 1578 1577 1577 1577 1576 1575 1574 1573 1573 1573 1573 1572 1572 1572 1572 1571 1570 1568 1567 1566 1565 1564 1563 1561
1531 1533 1534 1536 1537 1538 1539 1540 1541 1542 1543 1545 1547 1549 1551 1553 1555 1556 1558 1559 1560 1561 1562 1563 1563 1563 1564 1564 1565 1565 1566 1567 1567 1567 1567 1567 1567 1568 1568 1569 1570 1571 1572 1572 1572 1573 1573 1573 1574 1575 1576 1576 1578 1579 1578 1578 1579 1579 1579 1579 1579 1579 1577 1576 1575 1575 1574 1574 1573 1573 1573 1573 1572 1572 1571 1571 1570 1569 1568 1567 1566 1565 1564 1562 1562
1530 1531 1533 1535 1537 1537 1538 1539 1539 1541 1543 1544 1545 1548 1550 1552 1554 1555 1557 1558 1559 1560 1561 1562 1562 1562 1563 1564 1564 1564 1565 1566 1566 1566 1566 1567 1567 1568 1568 1569 1569 1570 1571 1571 1572 1572 1573 1574 1574 1575 1576 1576 1578 1579 1578 1578 1578 1579 1579 1579 1578 1578 1577 1576 1575 1574 1574 1574 1574 1573 1572 1572 1572 1571 1571 1570 1570 1569 1567 1566 1565 1564 1563 1562 1561
1528 1529 1531 1534 1536 1536 1536 1537 1538 1540 1541 1543 1544 1547 1549 1551 1553 1554 1556 1557 1558 1559 1560 1561 1561 1561 1562 1563 1562 1563 1563 1564 1565 1565 1566 1566 1566 1567 1567 1568 1569 1569 1570 1570 1571 1572 1573 1573 1574 1575 1575 1576 1577 1577 1577 1578 1578 1578 1578 1578 1578 1578 1577 1576 1575 1575 1575 1575 1574 1573 1572 1571 1571 1570 1570 1569 1569 1568 1567 1566 1565 1564 1563 1562 1561
1525 1527 1529 1532 1534 1535 1535 1536 1537 1539 1540 1541 1543 1545 1548 1550 1552 1553 1554 1556 1557 1558 1559 1560 1559 1560 1561 1562 1561 1562 1562 1563 1564 1564 1564 1565 1565 1566 1567 1567 1568 1569 1569 1569 1570 1571 1572 1572 1573 1574 1575 1576 1576 1576 1577 1577 1577 1578 1578 1578 1578 1577 1577 1576 1576 1575 1575 1575 1574 1573 1572 1571 1571 1570 1569 1569 1568 1568 1567 1566 1565 1564 1563 1562 1561
1523 1525 1527 1530 1532 1533 1534 1535 1537 1538 1539 1540 1542 1544 1547 1549 1550 1552 1553 1554 1555 1557 1557 1557 1558 1559 1560 1561 1561 1561 1562 1562 1562 1563 1563 1564 1564 1565 1566 1567 1567 1568 1568 1569 1570 1570 1571 1571 1572 1574 1575 1576 1575 1575 1576 1576 1577 1577 1577 1578 1577 1576 1576 1576 1576 1575 1575 1574 1573 1573 1572 1571 1571 1570 1570 1569 1568 1567 1566 1565 1564 1564 1563 1562 1561
1520 1522 1525 1527 1530 1531 1532 1534 1535 1537 1538 1539 1541 1543 1545 1547 1549 1550 1552 1553 1554 1555 1555 1556 1556 1558 1559 1560 1560 1560 1561 1561 1561 1562 1562 1563 1563 1564 1565 1565 1566 1567 1567 1568 1568 1569 1570 1570 1571 1573 1574 1575 1575 1574 1574 1575 1576 1577 1577 1577 1576 1575 1575 1575 1575 1574 1574 1573 1573 1572 1572 1571 1571 1570 1570 1568 1567 1567 1566 1565 1564 1563 1563 1562 1561
1517 1520 1522 1524 1526 1528 1530 1531 1533 1535 1537 1538 1540 1541 1543 1545 1546 1548 1550 1552 1553 1553 1554 1554 1555 1557 1558 1558 1559 1559 1560 1560 1560 1561 1561 1562 1562 1563 1563 1564 1565 1566 1566 1567 1568 1568 1569 1570 1571 1572 1573 1574 1574 1573 1573 1574 1575 1576 1576 1576 1575 1574 1574 1574 1574 1574 1573 1573 1572 1571 1571 1571 1570 1569 1569 1568 1567 1566 1566 1565 1564 1563 1562 1561 1560
1515 1517 1520 1522 1524 1525 1527 1528 1531 1533 1535 1536 1537 1539 1541 1542 1544 1546 1548 1549 1551 1551 1552 1553 1554 1555 1557 1557 1558 1558 1559 1559 1560 1560 1560 1561 1561 1562 1562 1563 1564 1565 1566 1566 1567 1567 1568 1569 1570 1572 1572 1573 1573 1572 1573 1573 1574 1575 1575 1574 1574 1574 1573 1573 1573 1573 1573 1572 1572 1571 1570 1570 1570 1569 1568 1567 1567 1566 1565 1564 1563 1562 1561 1560 1559
1512 1515 1517 1521 1523 1524 1525 1526 1529 1531 1532 1534 1535 1536 1538 1540 1542 1544 1546 1547 1549 1550 1550 1551 1553 1554 1555 1556 1556 1557 1558 1558 1559 1559 1559 1560 1560 1561 1562 1562 1563 1564 1565 1565 1566 1566 1567 1568 1569 1570 1571 1571 1571 1571 1572 1572 1573 1573 1573 1573 1573 1573 1573 1573 1572 1572 1572 1572 1571 1571 1570 1570 1569 1568 1568 1567 1566 1565 1565 1564 1563 1562 1561 1560 1559
1510 1512 1515 1517 1520 1522 1523 1525 1527 1528 1530 1532 1534 1535 1537 1539 1541 1543 1545 1546 1547 1548 1549 1549 1551 1553 1554 1554 1555 1556 1557 1558 1558 1558 1558 1558 1559 1559 1560 1561 1562 1563 1563 1564 1564 1565 1566 1566 1567 1568 1569 1570 1570 1570 1570 1570 1571 1571 1572 1572 1572 1572 1572 1572 1572 1572 1571 1571 1571 1571 1570 1569 1569 1568 1567 1566 1565 1564 1564 1563 1562 1561 1561 1560 1559
1508 1509 1511 1513 1516 1519 1521 1523 1525 1526 1528 1530 1533 1535 1537 1538 1540 1542 1543 1544 1545 1546 1547 1549 1550 1552 1552 1553 1553 1554 1555 1557 1558 1558 1558 1558 1558 1558 1559 1560 1560 1561 1561 1562 1562 1563 1564 1564 1565 1566 1567 1568 1568 1568 1568 1569 1569 1570 1570 1570 1570 1571 1570 1571 1571 1571 1571 1570 1570 1570 1569 1568 1568 1568 1567 1565 1564 1564 1563 1562 1562 1561 1560 1559 1558
1503 1505 1507 1509 1512 1515 1518 1521 1523 1524 1526 1529 1532 1534 1536 1537 1538 1540 1541 1542 1543 1544 1545 1547 1548 1550 1551 1551 1551 1552 1554 1555 1556 1557 1558 1558 1558 1558 1558 1559 1559 1559 1559 1560 1561 1561 1562 1562 1563 1564 1565 1566 1566 1566 1567 1567 1568 1568 1568 1568 1569 1569 1569 1569 1569 1569 1569 1569 1569 1568 1568 1568 1567 1567 1566 1565 1564 1563 1562 1561 1561 1560 1559 1559 1558
1498 1501 1504 1507 1510 1512 1515 1519 1521 1522 1525 1527 1530 1532 1533 1534 1535 1535 1536 1537 1539 1540 1542 1544 1546 1548 1549 1550 1550 1551 1552 1552 1553 1554 1555 1555 1556 1556 1556 1557 1558 1558 1558 1559 1559 1559 1560 1560 1561 1562 1563 1563 1564 1565 1565 1566 1566 1566 1567 1567 1566 1566 1567 1567 1567 1568 1568 1568 1567 1567 1567 1567 1567 1566 1566 1565 1564 1563 1562 1561 1561 1560 1559 1558 1558
1494 1498 1502 1505 1508 1510 1513 1516 1518 1520 1523 1525 1528 1529 1531 1532 1533 1533 1533 1534 1536 1538 1541 1543 1545 1547 1548 1549 1549 1550 1551 1551 1551 1551 1552 1553 1553 1554 1554 1555 1556 1557 1557 1557 1558 1558 1558 1559 1559 1560 1561 1562 1563 1563 1564 1564 1564 1565 1565 1565 1565 1565 1565 1565 1565 1566 1566 1566 1566 1566 1566 1566 1566 1565 1565 1565 1564 1563 1563 1562 1561 1560 1559 1558 1558
1491 1495 1499 1502 1505 1508 1511 1514 1516 1518 1521 1523 1525 1527 1528 1530 1531 1532 1532 1533 1535 1537 1539 1542 1544 1545 1547 1548 1549 1550 1550 1550 1550 1550 1550 1551 1552 1552 1552 1554 1555 1555 1555 1556 1556 1557 1557 1557 1558 1559 1560 1560 1561 1562 1562 1562 1563 1563 1563 1564 1564 1564 1564 1563 1563 1564 1564 1564 1564 1564 1565 1565 1565 1565 1564 1564 1564 1563 1563 1562 1561 1560 1559 1559 1558
1489 1492 1496 1500 1503 1505 1508 1511 1514 1516 1518 1521 1523 1525 1527 1528 1529 1530 1531 1532 1534 1536 1538 1540 1542 1544 1545 1546 1548 1549 1549 1549 1549 1549 1549 1550 1550 1550 1551 1552 1553 1553 1554 1555 1555 1556 1556 1556 1557 1558 1559 1559 1560 1560 1560 1560 1561 1561 1561 1562 1562 1562 1562 1562 1562 1562 1562 1562 1562 1562 1563 1564 1564 1564 1564 1564 1563 1563 1562 1562 1561 1559 1559 1558 1557
1486 1490 1493 1497 1500 1503 1506 1508 1511 1513 1516 1519 1520 1522 1525 1526 1527 1529 1529 1530 1532 1534 1537 1539 1540 1542 1543 1545 1546 1547 1547 1548 1548 1548 1548 1548 1549 1549 1550 1550 1551 1552 1553 1553 1554 1554 1555 1555 1556 1557 1558 1558 1559 1559 1559 1559 1559 1559 1560 1560 1560 1560 1560 1561 1561 1561 1560 1560 1561 1561 1562 1562 1562 1563 1563 1563 1563 1563 1562 1560 1559 1558 1558 1557 1557
1485 1488 1491 1494 1497 1500 1503 1506 1508 1511 1514 1516 1518 1520 1522 1524 1526 1527 1527 1528 1530 1532 1534 1536 1538 1539 1541 1543 1544 1545 1545 1546 1546 1546 1547 1547 1547 1548 1549 1549 1550 1550 1551 1552 1552 1553 1553 1554 1555 1556 1556 1557 1557 1558 1558 1558 1558 1558 1559 1559 1559 1559 1559 1559 1559 1559 1559 1559 1559 1560 1560 1561 1561 1562 1562 1563 1563 1562 1561 1560 1559 1558 1557 1557 1558